Zurück zum Katalog

CZ-6A DEB

AktivPO
NORAD 60625·DEBRIS·🇨🇳 China

Gestartet Aug 6, 2024 von Taiyuan Satellite Launch Center

Loading…

Nächste Überflüge (nächste 24 Stunden)

TLE

AktuellSource: Space-Track

Epoche: Sep 14, 2026, 10:59 UTC

1 60625U 24140AA  26257.45765064  .00004250  00000-0  10848-2 0  9993
2 60625  88.9916 260.7390 0063657  38.8079 321.7673 14.49164781110849

Verfolge CZ-6A DEB in Echtzeit mit AllMySat

Download on the App Store